Weather History for KMIW - July, 2013

Change the Weather History Date:

Friday, July 19, 2013

  Actual Average Record
Temperature  
Mean Temperature 79 °F 73 °F  
Max Temperature 92 °F 84 °F 95 °F (2011)
Min Temperature 65 °F 63 °F 55 °F (2003)
Degree Days  
Heating Degree Days 0 0  
Month to date heating degree days 0 0  
Since 1 June heating degree days 37 28  
Since 1 July heating degree days 0 0  
Cooling Degree Days 14 8  
Month to date cooling degree days 197 152  
Year to date cooling degree days 420 365  
Since 1 June cooling degree days 359 315  
Growing Degree Days 30 (Base 50)    
Moisture  
Dew Point 69 °F    
Average Humidity 69    
Maximum Humidity 93    
Minimum Humidity 44    
Precipitation  
Precipitation 0.02 in 0.13 in 0.70 in (2007)
Month to date precipitation 0.22 2.85  
Sea Level Pressure  
Sea Level Pressure 29.86 in    
Wind  
Wind Speed 9 mph (West)    
Max Wind Speed 16 mph    
Max Gust Speed 20 mph    
Visibility 10 miles    
Events Rain , Thunderstorm    
T = Trace of Precipitation, MM = Missing Value Source: NWS Daily Summary

Daily Weather History Graph

Daily Weather History Graph

Search for Another Location

Airport or City:

Trip Planner

Search our weather history database for the weather conditions in past years. The results will help you decide how hot, cold, wet, or windy it might be!

Date:

Astronomy

Jul. 19, 2013 Rise Set
Actual Time 5:52 AM CDT 8:42 PM CDT
Civil Twilight 5:19 AM CDT 9:15 PM CDT
Nautical Twilight 4:38 AM CDT 9:57 PM CDT
Astronomical Twilight 3:49 AM CDT 10:45 PM CDT
Moon 5:45 PM CDT (7/19) 2:34 AM CDT (7/19)
Length of Visible Light 15h 56m
Length of Day
14h 50m
Waxing Gibbous, 87% of the Moon is Illuminated
Jul 19
Waxing Gibbous
Jul 22
Full
Jul 29
Last Quarter
Aug 6
New
Aug 14
First Quarter

Hourly Weather History & Observations

Time (CDT) Temp. Heat Index Dew Point Humidity Pressure Visibility Wind Dir Wind Speed Gust Speed Precip Events Conditions
12:53 AM 80.1 °F 82.7 °F 68.0 °F 67% 29.89 in 10.0 mi SSW 11.5 mph - N/A   Clear
1:53 AM 79.0 °F - 68.0 °F 69% 29.88 in 10.0 mi SW 10.4 mph - N/A   Clear
2:53 AM 78.1 °F - 68.0 °F 71% 29.87 in 10.0 mi SW 10.4 mph - N/A   Clear
3:53 AM 77.0 °F - 68.0 °F 74% 29.85 in 10.0 mi SW 9.2 mph - N/A   Scattered Clouds
4:53 AM 75.9 °F - 68.0 °F 76% 29.84 in 10.0 mi SW 9.2 mph - N/A   Scattered Clouds
5:53 AM 75.9 °F - 66.9 °F 74% 29.85 in 10.0 mi WSW 9.2 mph - N/A   Clear
6:53 AM 77.0 °F - 68.0 °F 74% 29.85 in 10.0 mi SW 8.1 mph - N/A   Scattered Clouds
7:53 AM 79.0 °F - 68.0 °F 69% 29.87 in 10.0 mi West 6.9 mph - N/A   Mostly Cloudy
8:14 AM 78.8 °F - 69.8 °F 74% 29.91 in 8.0 mi North 3.5 mph - 0.00 in Rain , Thunderstorm Light Thunderstorms and Rain
8:33 AM 77.0 °F - 71.6 °F 83% 29.92 in 8.0 mi WNW 3.5 mph - 0.01 in Rain Light Rain
8:53 AM 77.0 °F - 72.0 °F 84% 29.89 in 10.0 mi SSW 6.9 mph - 0.01 in Rain Light Rain
9:15 AM 75.2 °F - 71.6 °F 89% 29.91 in 10.0 mi SSW 5.8 mph - 0.00 in Thunderstorm Thunderstorm
9:30 AM 75.2 °F - 71.6 °F 89% 29.91 in 10.0 mi SW 10.4 mph - 0.00 in   Partly Cloudy
9:53 AM 75.9 °F - 72.0 °F 87% 29.88 in 10.0 mi WSW 6.9 mph - 0.01 in   Mostly Cloudy
10:53 AM 81.0 °F 85.2 °F 72.0 °F 74% 29.86 in 10.0 mi SW 10.4 mph - 0.00 in   Clear
11:53 AM 86.0 °F 91.5 °F 71.1 °F 61% 29.85 in 10.0 mi West 13.8 mph - N/A   Clear
12:53 PM 86.0 °F 93.8 °F 73.9 °F 67% 29.84 in 10.0 mi WNW 10.4 mph - N/A   Partly Cloudy
1:53 PM 89.1 °F 97.0 °F 73.0 °F 59% 29.84 in 10.0 mi WSW 10.4 mph - N/A   Scattered Clouds
2:53 PM 91.0 °F 98.2 °F 72.0 °F 53% 29.83 in 10.0 mi West 11.5 mph - N/A   Partly Cloudy
3:53 PM 91.9 °F 95.4 °F 66.9 °F 44% 29.82 in 10.0 mi West 10.4 mph 18.4 mph N/A   Partly Cloudy
4:53 PM 91.0 °F 97.6 °F 71.1 °F 52% 29.81 in 10.0 mi WNW 6.9 mph - N/A   Clear
5:45 PM 89.6 °F 94.7 °F 69.8 °F 52% 29.84 in 10.0 mi North 13.8 mph - N/A   Partly Cloudy
5:53 PM 89.1 °F 93.7 °F 69.1 °F 52% 29.81 in 10.0 mi North 15.0 mph - N/A   Clear
6:53 PM 86.0 °F 88.8 °F 66.9 °F 53% 29.81 in 10.0 mi North 10.4 mph - N/A   Clear
7:53 PM 82.9 °F 85.8 °F 68.0 °F 60% 29.83 in 10.0 mi North 8.1 mph - N/A   Clear
8:53 PM 75.0 °F - 66.0 °F 73% 29.84 in 10.0 mi North 8.1 mph - N/A   Clear
9:53 PM 72.0 °F - 64.9 °F 78% 29.87 in 10.0 mi North 6.9 mph - N/A   Clear
10:53 PM 70.0 °F - 64.0 °F 81% 29.88 in 10.0 mi NNW 5.8 mph - N/A   Clear
11:53 PM 66.9 °F - 64.0 °F 90% 29.90 in 10.0 mi NW 3.5 mph - N/A   Clear